Voltar ao catálogo

NOAA 16 DEB

AtivoSSO
NORAD 41211·DEBRIS·🇺🇸 United States

Lançado Sep 21, 2000 de Vandenberg Space Force Base

Loading…

Próximas Passagens (próximas 24 horas)

TLE

AtualizadoSource: Space-Track

Época: Sep 14, 2026, 08:44 UTC

1 41211U 00055DQ  26257.36393734  .00001653  00000-0  76995-3 0  9993
2 41211  98.6713 305.6949 0025294 209.7754 150.1985 14.21691437554985

Acompanhe NOAA 16 DEB em tempo real com AllMySat

Download on the App Store